Location: *
(45.1961°N, 1.9694°E)
Time: 07:58:35
(UTC+00:00)

Sich 1 Rocket - Pass Details

Date: 25 August 2019
Orbit: 617 x 652 km, 82.5° (Epoch: 16 October)

Event Time Altitude Azimuth Distance (km) Brightness Sun altitude
Exits shadow 20:57:38 46° 184° (S) 858 4.0 -21.5°
Maximum altitude 20:58:57 87° 96° (E) 644 3.5 -21.7°
Drops below altitude 10° 21:03:27 10° 9° (N) 2,023 6.6 -22.2°
Sets 21:05:41 0° 10° (N) 2,930 7.5 -22.5°
